Meteo pe oră la Bolshie Gorki

Astăzi, 10 Mai, Luni

Timp Temperatura Precipitaţii Vânt Presiune Umiditate
00:00 +3°C° 0 mm 2 m/s 755 mmHg 76%
01:00 +2°C° 0 mm 2 m/s 755 mmHg 77%
02:00 +2°C° 0 mm 2 m/s 756 mmHg 79%
03:00 +3°C° 0 mm 1 m/s 756 mmHg 77%
04:00 +3°C° 0 mm 1 m/s 757 mmHg 76%
05:00 +4°C° 0 mm 1 m/s 757 mmHg 74%
06:00 +6°C° 0 mm 1 m/s 757 mmHg 66%
07:00 +8°C° 0 mm 1 m/s 758 mmHg 58%
08:00 +10°C° 0 mm 1 m/s 758 mmHg 49%
09:00 +12°C° 0 mm 1 m/s 758 mmHg 46%
10:00 +13°C° 0 mm 1 m/s 758 mmHg 42%
11:00 +14°C° 0 mm 1 m/s 758 mmHg 38%
12:00 +15°C° 0 mm 1 m/s 758 mmHg 37%
13:00 +15°C° 0 mm 1 m/s 758 mmHg 36%
14:00 +16°C° 0 mm 1 m/s 758 mmHg 34%
15:00 +16°C° 0 mm 1 m/s 758 mmHg 37%
16:00 +16°C° 0 mm 1 m/s 758 mmHg 40%
17:00 +15°C° 0 mm 1 m/s 758 mmHg 42%
18:00 +13°C° 0 mm 1 m/s 758 mmHg 49%
19:00 +11°C° 0 mm 1 m/s 758 mmHg 55%
20:00 +9°C° 0 mm 1 m/s 758 mmHg 61%
21:00 +8°C° 0 mm 1 m/s 758 mmHg 63%
22:00 +8°C° 0 mm 1 m/s 758 mmHg 66%
23:00 +7°C° 0 mm 1 m/s 759 mmHg 68%

Mâine, 11 Mai, Marţi

Timp Temperatura Precipitaţii Vânt Presiune Umiditate
00:00 +7°C° 0 mm 1 m/s 759 mmHg 70%
01:00 +6°C° 0 mm 1 m/s 759 mmHg 71%
02:00 +6°C° 0 mm 1 m/s 759 mmHg 73%
03:00 +6°C° 0 mm 1 m/s 759 mmHg 73%
04:00 +6°C° 0 mm 1 m/s 759 mmHg 73%
05:00 +7°C° 0 mm 1 m/s 759 mmHg 74%
06:00 +8°C° 0 mm 2 m/s 759 mmHg 66%
07:00 +10°C° 0 mm 2 m/s 759 mmHg 59%
08:00 +12°C° 0 mm 3 m/s 759 mmHg 51%
09:00 +14°C° 0 mm 3 m/s 759 mmHg 47%
10:00 +16°C° 0 mm 3 m/s 759 mmHg 43%
11:00 +17°C° 0 mm 3 m/s 759 mmHg 39%
12:00 +18°C° 0 mm 4 m/s 758 mmHg 38%
13:00 +19°C° 0 mm 4 m/s 758 mmHg 38%
14:00 +19°C° 0 mm 4 m/s 758 mmHg 37%
15:00 +19°C° 0 mm 3 m/s 758 mmHg 43%
16:00 +18°C° 0 mm 3 m/s 758 mmHg 48%
17:00 +18°C° 0 mm 3 m/s 758 mmHg 54%
18:00 +16°C° 0 mm 3 m/s 758 mmHg 62%
19:00 +13°C° 0 mm 3 m/s 758 mmHg 69%
20:00 +12°C° 0 mm 2 m/s 758 mmHg 77%
21:00 +12°C° 0 mm 2 m/s 758 mmHg 81%
22:00 +10°C° 0 mm 2 m/s 758 mmHg 85%
23:00 +10°C° 0 mm 2 m/s 758 mmHg 89%

Poimâine, 12 Mai, Miercuri

Timp Temperatura Precipitaţii Vânt Presiune Umiditate
00:00 +10°C° 0 mm 2 m/s 758 mmHg 91%
01:00 +9°C° 0 mm 2 m/s 758 mmHg 93%
02:00 +9°C° 0 mm 2 m/s 757 mmHg 95%
03:00 +10°C° 0 mm 2 m/s 758 mmHg 95%
04:00 +11°C° 0 mm 1 m/s 758 mmHg 95%
05:00 +11°C° 0 mm 1 m/s 758 mmHg 95%
06:00 +13°C° 0 mm 1 m/s 757 mmHg 90%
07:00 +15°C° 0 mm 2 m/s 757 mmHg 85%
08:00 +16°C° 0 mm 2 m/s 757 mmHg 79%
09:00 +18°C° 0 mm 3 m/s 756 mmHg 73%
10:00 +20°C° 0 mm 4 m/s 756 mmHg 67%
11:00 +21°C° 0 mm 5 m/s 755 mmHg 61%
12:00 +21°C° 0.5 mm 5 m/s 755 mmHg 62%
13:00 +21°C° 0.5 mm 6 m/s 754 mmHg 63%
14:00 +22°C° 0.5 mm 6 m/s 753 mmHg 64%
15:00 +20°C° 0.8 mm 6 m/s 753 mmHg 70%
16:00 +19°C° 0.8 mm 6 m/s 753 mmHg 75%
17:00 +16°C° 0.8 mm 6 m/s 752 mmHg 81%
18:00 +16°C° 0.2 mm 6 m/s 752 mmHg 83%
19:00 +15°C° 0.2 mm 6 m/s 752 mmHg 86%
20:00 +14°C° 0.2 mm 6 m/s 752 mmHg 88%
21:00 +12°C° 0 mm 5 m/s 753 mmHg 90%
22:00 +10°C° 0 mm 4 m/s 753 mmHg 91%
23:00 +8°C° 0 mm 3 m/s 754 mmHg 93%

13 Mai, Joi

Timp Temperatura Precipitaţii Vânt Presiune Umiditate
00:00 +8°C° 0 mm 3 m/s 754 mmHg 94%
01:00 +7°C° 0 mm 2 m/s 754 mmHg 95%
02:00 +6°C° 0 mm 2 m/s 754 mmHg 97%
03:00 +7°C° 0 mm 2 m/s 753 mmHg 95%
04:00 +7°C° 0 mm 2 m/s 753 mmHg 93%
05:00 +8°C° 0 mm 3 m/s 753 mmHg 91%
06:00 +10°C° 0 mm 3 m/s 752 mmHg 85%
07:00 +12°C° 0 mm 4 m/s 752 mmHg 79%
08:00 +14°C° 0 mm 4 m/s 752 mmHg 73%
09:00 +14°C° 0 mm 4 m/s 752 mmHg 72%
10:00 +15°C° 0 mm 4 m/s 752 mmHg 70%
11:00 +17°C° 0 mm 4 m/s 751 mmHg 69%
12:00 +17°C° 0.3 mm 4 m/s 751 mmHg 67%
13:00 +18°C° 0.3 mm 4 m/s 751 mmHg 66%
14:00 +17°C° 0.3 mm 5 m/s 751 mmHg 64%
15:00 +18°C° 0.1 mm 4 m/s 751 mmHg 65%
16:00 +18°C° 0.1 mm 3 m/s 751 mmHg 65%
17:00 +18°C° 0.1 mm 2 m/s 751 mmHg 66%
18:00 +17°C° 0 mm 2 m/s 751 mmHg 73%
19:00 +15°C° 0 mm 2 m/s 751 mmHg 79%
20:00 +13°C° 0 mm 1 m/s 751 mmHg 86%
21:00 +12°C° 0 mm 1 m/s 751 mmHg 88%
22:00 +12°C° 0 mm 1 m/s 751 mmHg 89%
23:00 +11°C° 0 mm 1 m/s 751 mmHg 91%

14 Mai, Vineri

Timp Temperatura Precipitaţii Vânt Presiune Umiditate
00:00 +11°C° 0 mm 1 m/s 751 mmHg 92%
01:00 +10°C° 0 mm 2 m/s 751 mmHg 93%
02:00 +9°C° 0 mm 2 m/s 751 mmHg 94%
03:00 +10°C° 0 mm 2 m/s 751 mmHg 93%
04:00 +10°C° 0 mm 2 m/s 751 mmHg 93%
05:00 +12°C° 0 mm 2 m/s 751 mmHg 92%
06:00 +14°C° 0 mm 2 m/s 751 mmHg 86%
07:00 +16°C° 0 mm 3 m/s 751 mmHg 80%
08:00 +18°C° 0 mm 4 m/s 750 mmHg 74%
09:00 +19°C° 0 mm 4 m/s 750 mmHg 68%
10:00 +21°C° 0 mm 4 m/s 750 mmHg 61%
11:00 +22°C° 0 mm 5 m/s 750 mmHg 55%
12:00 +23°C° 0 mm 5 m/s 749 mmHg 53%
13:00 +23°C° 0 mm 5 m/s 749 mmHg 52%
14:00 +25°C° 0 mm 5 m/s 748 mmHg 50%
15:00 +23°C° 0.3 mm 5 m/s 748 mmHg 57%
16:00 +22°C° 0.3 mm 5 m/s 747 mmHg 64%
17:00 +21°C° 0.3 mm 5 m/s 747 mmHg 71%
18:00 +20°C° 1.2 mm 5 m/s 747 mmHg 76%
19:00 +19°C° 1.2 mm 4 m/s 746 mmHg 82%
20:00 +18°C° 1.2 mm 4 m/s 746 mmHg 87%
21:00 +17°C° 0.4 mm 4 m/s 746 mmHg 90%
22:00 +17°C° 0.4 mm 3 m/s 746 mmHg 92%
23:00 +16°C° 0.4 mm 3 m/s 746 mmHg 94%

15 Mai, Sâmbătă

Timp Temperatura Precipitaţii Vânt Presiune Umiditate
00:00 +14°C° 0 mm 3 m/s 746 mmHg 95%
01:00 +15°C° 0 mm 2 m/s 746 mmHg 96%
02:00 +14°C° 0 mm 2 m/s 746 mmHg 96%
03:00 +14°C° 0 mm 2 m/s 746 mmHg 96%
04:00 +14°C° 0 mm 1 m/s 746 mmHg 96%
05:00 +15°C° 0 mm 1 m/s 746 mmHg 96%
06:00 +16°C° 0 mm 1 m/s 746 mmHg 92%
07:00 +18°C° 0 mm 1 m/s 746 mmHg 89%
08:00 +19°C° 0 mm 1 m/s 746 mmHg 85%
09:00 +19°C° 0 mm 2 m/s 746 mmHg 77%
10:00 +21°C° 0 mm 2 m/s 746 mmHg 69%
11:00 +23°C° 0 mm 2 m/s 747 mmHg 62%
12:00 +23°C° 0.2 mm 2 m/s 747 mmHg 61%
13:00 +24°C° 0.2 mm 2 m/s 747 mmHg 61%
14:00 +24°C° 0.2 mm 2 m/s 746 mmHg 61%
15:00 +23°C° 0.1 mm 2 m/s 746 mmHg 65%
16:00 +23°C° 0.1 mm 1 m/s 746 mmHg 69%
17:00 +22°C° 0.1 mm 1 m/s 745 mmHg 73%
18:00 +21°C° 1.3 mm 1 m/s 745 mmHg 80%
19:00 +19°C° 1.3 mm 1 m/s 745 mmHg 87%
20:00 +18°C° 1.3 mm 1 m/s 745 mmHg 93%
21:00 +16°C° 1.9 mm 1 m/s 744 mmHg 94%
22:00 +16°C° 1.9 mm 1 m/s 744 mmHg 96%
23:00 +15°C° 1.9 mm 2 m/s 744 mmHg 97%
Arată mai mult

Formular de consimțământ

Meteoprog și furnizorii noștri de servicii pot stoca și accesa date personale, precum cookies, identificatori de dispozitiv sau alte tehnologii similare pe dispozitivul dumneavoastră și procesa astfel de date pentru a personaliza conținutul și reclamele, dar și pentru a oferi caracteristici de social media și pentru a analiza traficul.

  • Stocarea și/sau accesarea informațiilor pe dispozitivul dumneavoastră

    Cookies, identificatori de dispozitiv sau alte informații pot fi stocate sau accesate pe dispozitiv în scopurile indicate mai sus.

  • Reclame și conținut personalizat, evaluarea reclamelor și a conținutului, informații despre audiențe și dezvoltarea produselor

    Reclamele și conținutul pot fi personalizate pe baza unui profil. Pot fi adăugate date suplimentare pentru a personaliza mai bine reclamele și conținutul. Performanța reclamelor și conținutului poate fi măsurată. Pot fi obținute informații despre utilizatorii care au văzut reclamele și conținutul. Aceste date pot fi utilizate pentru a dezvolta sau îmbunătăți experiența utilizatorilor, sistemele și software-ul.

Dând clic pe ‘Sunt de acord’, permiteți utilizarea cookie-urilor menționate, a identificatorilor de dispozitiv, balizelor web sau altor tehnologii similare. Setările pot fi modificate din browser-ul dispozitivului dumneavoastră.

În anumite scopuri, interesele legitime pot prima asupra consimțământului. Puteți citi mai multe informații în acest sens în Politica privind Confidențialitatea Datelor și Cookie.